Погода в Лондрине

Бразилия     23°17′51″S   51°09′36″W
темп.,
°C
ветер,
м/с
пор.,
м/с
влажн.,
%
обл.,
%
осадки,
мм/ч
давл.,
гПа
погр.,
м
28 сентября, вт
вт2800:00+23ююв11500 0.0 101511
03:00+21ююв22570 0.0 101514
06:00+19юв35660 0.0 101695
09:00+27всв45390 0.0 1017556
12:00+33св33250 0.0 10142584
15:00+34с432298 0.0 10103068
18:00+30ссз3628100 0.0 100998
21:00+27зсз11331 0.0 101011
29 сентября, ср
ср2900:00+24юв11390 0.0 101011
03:00+23ююв114267 0.0 100915
06:00+22ююв24446 0.0 1011101
09:00+29вюв56315 0.0 1012673
12:00+35всв242212 0.0 10102182
15:00+36в242098 0.0 10063122
18:00+31ююв2228100 0.0 100618
21:00+26юв384499 0.0 1010182
30 сентября, чт
чт3000:00+24юв394947 0.0 1010185
03:00+23вюв5115115 0.0 1009388
06:00+20вюв6127298 0.0 1011440
09:00+25в710505 0.0 1012608
12:00+32всв673035 0.0 10101248
15:00+36всв44234 0.0 10062052
18:00+32вюв34283 0.0 100569
21:00+27юв23385 0.0 100740
1 октября, пт
пт100:00+23вюв395614 0.0 1008220
03:00+22в3116294 0.0 1007370
06:00+22в3116577 0.0 1008375
09:00+24ююз6755100 0.1 1012743
12:00+26юв5850100 0.3 1010582
15:00+33всв4529100 0.3 10051266
18:00+30в223786 0.0 100515
21:00+24ююв3753100 0.1 1008148
2 октября, сб
сб200:00+22вюв5126799 0.0 1009637
03:00+20вюв5138350 0.0 1009456
06:00+18вюв51286100 0.3 1009396
09:00+23вюв6965100 1.1 1011599
12:00+26вюв5659100 2.4 1010861
15:00+29юв544757 2.4 1006877
18:00+22ююз2379100 1.1 100870
21:00+20юв61295100 12.3 1010386